Lid_Strength_Index
1 1 1 1 1 1 1 1 -0 -0 -0 -0 -1 -0 -0 -0 0 0 0 1 1 1
1 1 1 1 0 0 1 0 -0 -0 -0 -0 -0 -0 -0 0 0 0 0 0 0 1
1 1 1 0 1 1 0 0 0 1 0 -0 -0 -0 -0 0 0 0 0 0 1 1
1 1 1 1 1 1 1 0 0 0 0 0 0 0 0 0 0 1 1 0 1 1
1 1 1 1 1 0 1 1 1 0 0 0 0 0 0 1 0 1 1 1 1 1
1 1 1 1 1 0 0 0 1 1 1 1 0 1 0 0 1 1 1 1 1 1
2 1 1 1 1 1 0 1 1 1 0 0 0 0 0 1 1 1 1 0 0 1
1 1 1 1 1 1 0 1 1 1 1 0 0 0 0 1 1 1 1 0 0 0
1 1 1 1 1 1 1 2 1 1 1 2 1 1 1 0 1 1 1 1 1 0
2 3 3 4 4 4 4 4 2 2 2 2 1 3 3 2 1 1 1 1 1 1
4 4 5 7 7 7 7 8 7 6 6 6 6 6 6 5 3 1 1 1 1 1
6 7 8 9 9 10 9 9 8 7 6 6 5 5 6 6 5 6 4 2 1 1
8 8 10 10 10 9 9 8 7 6 6 6 6 5 5 5 4 4 2 1 1 2
10 10 10 10 10 8 8 6 5 5 6 5 5 5 6 5 4 5 4 2 1 1